Regional Weather Roundup
Issued by NWS

Home | Current Version | Previous Version | Text Only | Print | Product List | Glossary Off
Versions: 1 2 3 4 5 6 7 8 9 10 11 12 13 14 15 16 17 18 19 20 21 22 23 24 25 26 27 28 29 30 31 32 33 34 35 36 37 38 39 40 41 42 43 44 45 46 47 48 49 50

000
ASUS43 KBIS 212202
RWRND

NORTH DAKOTA REGIONAL WEATHER ROUNDUP
NATIONAL WEATHER SERVICE BISMARCK ND
500 PM CDT FRI JUL 21 2017

NOTE: "FAIR" INDICATES FEW OR NO CLOUDS BELOW 12,000 FEET WITH NO
SIGNIFICANT WEATHER AND/OR OBSTRUCTIONS TO VISIBILITY.


NDZ001>003-009>011-017-212300-
NORTHWEST NORTH DAKOTA

CITY           SKY/WX    TMP DP  RH WIND       PRES   REMARKS
WILLISTON      FAIR      95  42  16 W15G22    29.80F HX  91
MINOT          FAIR      89  65  44 W7        29.79S HX  91
MINOT AFB      FAIR      86  65  50 W7        29.77F
$$

NDZ018>021-031>035-040>046-212300-
SOUTHWEST NORTH DAKOTA

CITY           SKY/WX    TMP DP  RH WIND       PRES   REMARKS
BISMARCK       FAIR      89  67  47 N3        29.79F HX  92
DICKINSON      FAIR      90  58  33 SW3       29.83F
GARRISON         N/A     88  65  46 S8        29.80S HX  90
HETTINGER ARPT FAIR      91  59  33 NW16G24   29.86S HX  90
$$

NDZ004>008-012>016-024-026-027-054-212300-
NORTHEAST NORTH DAKOTA

CITY           SKY/WX    TMP DP  RH WIND       PRES   REMARKS
GRAND FORKS    LGT RAIN  76  73  91 S8        29.69F
DEVILS LAKE    FAIR      78  66  66 SW12      29.77R
$$

NDZ022-023-025-028>030-036>039-047>053-212300-
SOUTHEAST NORTH DAKOTA

CITY           SKY/WX    TMP DP  RH WIND       PRES   REMARKS
FARGO          PTSUNNY   89  70  53 NW15      29.76R HX  94
JAMESTOWN      FAIR      83  63  50 NE13      29.79F
$$





USA.gov is the U.S. government's official web portal to all federal, state and local government web resources and services.